Location: Newark
(44.3681°N, 100.3364°W)
Time: 10:03:07
(UTC+00:00)

S-56A Canister/Altair - Pass Details

Date: 04 March 2020
Orbit: 634 x 2498 km, 38.9° (Epoch: 28 March)

Event Time Altitude Azimuth Distance (km) Brightness Sun altitude
Rises 17:17:14 0° 267° (W) 5,272 11.6 35.2°
Reaches altitude 10° 17:20:21 10° 265° (W) 4,479 11.3 35.4°
Maximum altitude 17:33:20 70° 186° (S) 2,537 11.2 36.5°
Drops below altitude 10° 17:48:22 10° 107° (ESE) 5,098 12.3 37.5°
Sets 17:52:11 0° 106° (ESE) 6,013 12.5 37.8°
